Location: Unspecified
(0.0000°N, 0.0000°E)
Time: 00:03:38
(UTC+01:00)

Iridium 39 - Visible Passes

Search period start: 19 December 2014 00:00
Search period end: 29 December 2014 00:00
Orbit: 776 x 779 km, 86.4° (Epoch: 18 December)

Date Brightness Start Highest point End Pass type
(mag) Time Alt. Az. Time Alt. Az. Time Alt. Az.
22 Dec 8.5 21:50:51 10° SSW 21:51:38 14° SSW 21:51:38 14° SSW visible
23 Dec 8.1 21:17:21 10° S 21:18:39 18° SSE 21:18:39 18° SSE visible
24 Dec 8.0 20:44:37 10° SSE 20:45:42 15° SE 20:45:42 15° SE visible
25 Dec 8.2 21:51:16 10° SSW 21:53:17 21° SW 21:53:17 21° SW visible
26 Dec 7.1 21:17:18 10° S 21:20:24 37° S 21:20:24 37° S visible
27 Dec 6.8 20:44:05 10° SSE 20:47:32 36° SE 20:47:32 36° SE visible
28 Dec 7.4 20:11:46 10° SE 20:14:43 20° ESE 20:14:43 20° ESE visible
28 Dec 8.2 21:52:04 10° SW 21:55:14 21° WSW 21:55:14 21° WSW visible
